Find Starlink 32524

NORAD ID: 62159 Int'l Des: 2024-224 Owner: SPXS Country: US Constellation: starlink operational
LEOCIRCULAR

当前视图

正在加载3D地球...

About Starlink 32524

Starlink 32524 (NORAD 62159) is a starlink constellation satellite (v2 mini) launched Nov 30, 2024 by SPXS of US. It operates in LEO, CIRCULAR orbit with a mass of 730.00 kg.

关于 Starlink 32524

正在加载描述...

即将过境

Passes for default location (London). Set your location on the main map for personalized predictions.

高度历史

Loading altitude history...

两行轨道根数

1 62159U 24224W 26171.43589744 .00023360 00000-0 85546-3 0 9993
2 62159 43.0010 301.3179 0001497 265.2643 94.8038 15.27589592 87994
Epoch: Jun 20, 2026 • Age: 44 hours

当前状态

高度 486.8 km
速度 7.63 km/s
星下点 42.76°N, 0.55°W
发射日期 Nov 30, 2024
运行时间 1.5 years
类型 internet

技术详情

分类 Payload
质量 730.00 kg
干质量 700.00 kg
总质量 730.00 kg
长度 0.30 m
直径 4.10 m
跨度 29.00 m
形状 Box + pan
制造商 SPXS
平台类型 Starlink V2M
阶段状态 In Orbit
所有者/国家 SPXS/US

Most Searched